N0XUT Weather Reports


Display with metric or nautical units.
time (UTC)temp
F
wind
direction
speed
MPH
gust
MPH
rain 1hr
in
rain 24hr
in
rain mn
in
humidity
%
barometer
mb
20260506231500 53 297 5.0 16.0 0.00 0.00 0.00 37 1015.4
20260506230001 53 284 8.0 15.0 0.00 0.00 0.00 36 1015.6
20260506224501 53 292 13.0 20.0 0.00 0.00 0.00 36 1015.7
20260506223001 53 294 12.0 21.0 0.00 0.00 0.00 36 1015.7
20260506220001 52 314 8.0 22.0 0.00 0.00 0.00 38 1015.5
20260506214501 52 326 12.0 20.0 0.00 0.00 0.00 37 1015.6
20260506211501 52 319 13.0 20.0 0.00 0.00 0.00 38 1015.6
20260506210001 52 306 10.0 22.0 0.00 0.00 0.00 38 1015.9
20260506203001 52 297 9.0 20.0 0.00 0.00 0.00 39 1016.1
20260506201501 51 269 10.0 21.0 0.00 0.00 0.00 39 1016.2
20260506200000 50 302 12.0 20.0 0.00 0.00 0.00 40 1016.4
20260506194501 51 294 9.0 17.0 0.00 0.00 0.00 41 1016.5
20260506193001 50 310 11.0 20.0 0.00 0.00 0.00 40 1016.6
20260506191503 50 332 10.0 18.0 0.00 0.00 0.00 40 1016.6
20260506190002 50 300 9.0 18.0 0.00 0.00 0.00 41 1016.6
20260506184501 50 293 10.0 24.0 0.00 0.00 0.00 41 1016.5
20260506183001 49 293 11.0 20.0 0.00 0.00 0.00 41 1016.6
20260506181500 50 257 12.0 21.0 0.00 0.00 0.00 41 1016.6
20260506180001 49 286 9.0 18.0 0.00 0.00 0.00 43 1016.7
20260506174501 49 295 10.0 20.0 0.00 0.00 0.00 42 1016.8
20260506173001 49 300 9.0 20.0 0.00 0.00 0.00 42 1016.8
20260506170001 49 326 12.0 21.0 0.00 0.00 0.00 40 1016.9
20260506164501 49 311 10.0 21.0 0.00 0.00 0.00 41 1016.8
20260506163001 49 275 10.0 17.0 0.00 0.00 0.00 44 1016.8
20260506161500 48 313 9.0 20.0 0.00 0.00 0.00 43 1016.8
20260506160002 48 322 9.0 22.0 0.00 0.00 0.00 43 1016.7
20260506154501 48 351 7.0 18.0 0.00 0.00 0.00 43 1016.6
20260506153001 48 318 9.0 18.0 0.00 0.00 0.00 44 1016.7
20260506151501 47 308 9.0 20.0 0.00 0.00 0.00 45 1016.7
20260506144502 47 312 9.0 16.0 0.00 0.00 0.00 46 1016.6
20260506143002 46 331 9.0 15.0 0.00 0.00 0.00 47 1016.4
20260506134501 43 317 5.0 14.0 0.00 0.00 0.00 54 1016.5
20260506131501 42 326 6.0 10.0 0.00 0.00 0.00 59 1016.2
20260506130002 41 325 6.0 12.0 0.00 0.00 0.00 60 1015.9
20260506123002 40 333 5.0 10.0 0.00 0.00 0.00 63 1015.7
20260506121501 39 323 4.0 12.0 0.00 0.00 0.00 65 1015.4
20260506120001 38 326 3.0 6.0 0.00 0.00 0.00 68 1015.1
20260506114502 38 335 3.0 7.0 0.00 0.00 0.00 67 1014.7
20260506113001 38 349 3.0 7.0 0.00 0.00 0.00 67 1014.7
20260506111502 37 330 4.0 8.0 0.00 0.00 0.00 67 1014.6
20260506110001 37 330 4.0 8.0 0.00 0.00 0.00 67 1014.3
20260506104501 37 329 3.0 8.0 0.00 0.00 0.00 67 1014.2
20260506103001 38 334 5.0 8.0 0.00 0.00 0.00 66 1014.1
20260506100001 39 327 4.0 8.0 0.00 0.00 0.00 64 1013.9
20260506094501 38 329 3.0 8.0 0.00 0.00 0.00 64 1013.8
20260506093001 38 325 3.0 8.0 0.00 0.00 0.00 64 1013.6
20260506091502 38 329 3.0 8.0 0.00 0.00 0.00 64 1013.5
20260506090001 38 335 3.0 10.0 0.00 0.00 0.00 63 1013.3
20260506084501 39 338 5.0 9.0 0.00 0.00 0.00 61 1013.4
20260506083001 39 326 4.0 6.0 0.00 0.00 0.00 61 1013.3
20260506081502 38 316 2.0 3.0 0.00 0.00 0.00 62 1013.2
20260506073001 40 310 1.0 3.0 0.00 0.00 0.00 59 1013.5
20260506071501 41 309 1.0 6.0 0.00 0.00 0.00 57 1013.1
20260506061501 41 338 2.0 3.0 0.00 0.00 0.00 56 1012.5
20260506044501 45 333 1.0 3.0 0.00 0.00 0.00 50 1011.7
20260506043001 46 332 1.0 3.0 0.00 0.00 0.00 48 1011.6
20260506041502 47 356 2.0 3.0 0.00 0.00 0.00 47 1011.6
20260506040001 48 353 3.0 5.0 0.00 0.00 0.00 46 1011.4
20260506034501 48 347 5.0 9.0 0.00 0.00 0.00 45 1011.4
20260506033002 49 345 5.0 9.0 0.00 0.00 0.00 45 1011.4
20260506030002 49 348 5.0 10.0 0.00 0.00 0.00 43 1011.3
20260506024502 50 339 5.0 12.0 0.00 0.00 0.00 42 1011.2
20260506023001 50 350 6.0 12.0 0.00 0.00 0.00 42 1010.9
20260506021501 50 354 4.0 8.0 0.00 0.00 0.00 42 1010.8
20260506013002 52 341 6.0 13.0 0.00 0.00 0.00 39 1009.9
20260506011501 52 339 8.0 14.0 0.00 0.00 0.00 38 1009.7
20260506010001 53 348 9.0 15.0 0.00 0.00 0.00 38 1009.5
20260506004503 53 338 10.0 20.0 0.00 0.00 0.00 37 1009.4
20260506003002 55 338 10.0 20.0 0.00 0.00 0.00 35 1009.1
20260506001502 55 322 7.0 15.0 0.00 0.00 0.00 35 1008.8
20260505234502 56 340 7.0 14.0 0.00 0.00 0.00 34 1008.6
20260505233002 57 329 9.0 16.0 0.00 0.00 0.00 34 1008.4